017  
ASUS43 KFSD 221610  
RWRFSD  
 
WEATHER ROUNDUP FOR SE SOUTH DAKOTA/SW MINNESOTA/NW IOWA  
NATIONAL WEATHER SERVICE SIOUX FALLS SD  
1100 AM CDT THU AUG 22 2019  
 
NOTE: "FAIR" INDICATES FEW OR NO CLOUDS BELOW 12,000 FEET WITH NO  
SIGNIFICANT WEATHER AND OR S TO VISIBILITY
.  
 
 
SDZ038>040-050-052>070-221700-  
SOUTHEAST SOUTH DAKOTA  
 
CITY SKY/WX TMP DP RH WIND PRES REMARKS
 
BROOKINGS SUNNY 69 55 60 E12 30.10S  
CHAMBERLAIN CLOUDY 69 69 100 SE12 30.05R  
HURON MOSUNNY 71 63 75 SE10 30.06S  
MADISON FAIR 68 64 88 S10 30.11R  
MITCHELL FAIR 71 61 70 SE9 30.07F  
SIOUX FALLS MOSUNNY 71 57 61 S13 30.10R  
WINNER PTSUNNY 74 62 66 SE17 30.02F  
YANKTON MOSUNNY 66 61 82 SE7 30.08F  

 
 
MNZ071-072-080-081-089-090-097-098-221700-  
SOUTHWEST MINNESOTA  
 
CITY SKY/WX TMP DP RH WIND PRES REMARKS
 
FAIRMONT SUNNY 68 57 68 NE5 30.12S  
JACKSON SUNNY 68 54 60 NE6 30.12S  
LUVERNE SUNNY 68 54 60 SE6 30.11R  
MARSHALL SUNNY 68 53 58 VRB6 30.12R  
MONTEVIDEO SUNNY 68 52 56 SW3 30.12R  
PIPESTONE SUNNY 68 55 64 S7 30.10F  
REDWOOD FALLS SUNNY 69 55 60 VRB3 30.11R  
TRACY SUNNY 68 55 64 E5 30.12R  
WINDOM SUNNY 66 54 63 NE5 30.12R  
WORTHINGTON SUNNY 68 53 58 E7 30.12S  

 
 
IAZ001>003-012>014-020>022-031-032-NEZ013-014-SDZ071-221700-  
NORTHWEST IOWA  
 
CITY SKY/WX TMP DP RH WIND PRES REMARKS
 
CHEROKEE SUNNY 70 60 70 E3 30.10F  
DENISON SUNNY 70 64 83 E6 30.10S  
ESTHERVILLE MOSUNNY 68 55 63 N7 30.10S  
LE MARS SUNNY 72 59 64 E8 30.09F  
MAURICE FAIR 70 59 68 SE10 30.09F  
SHELDON SUNNY 70 57 64 VRB6 30.09S  
SIOUX CITY SUNNY 71 62 73 E8 30.08F  
SPENCER SUNNY 73 55 53 E6 30.10F  
STORM LAKE SUNNY 68 59 73 E6 30.07F  

 
 
ABBREVIATIONS USED IN REMARKS  
TC - TEMPERATURE IN CELSIUS  
WCI - WIND CHILL INDEX  
HX - HEAT INDEX  
VSB - VISIBILITY  
 
 
 
CLICK HERE TO GO TO PREVIOUS BULLETINS.

The Nexlab SD Page
The Nexlab IA Page
The Nexlab MN Page
The Nexlab NE Page Main Text Page

The Nexlab SD Page Main Text Page